Weather History for Meacham, OR

Change the Weather History Date:

Saturday, June 9, 2012

  Actual Average Record
Temperature  
Mean Temperature 40 °F -  
Max Temperature 48 °F 62 °F 115 °F (2002)
Min Temperature 35 °F 35 °F 25 °F (1999)
Degree Days  
Heating Degree Days 24    
Moisture  
Dew Point 36 °F    
Average Humidity 84    
Maximum Humidity 93    
Minimum Humidity 59    
Precipitation  
Precipitation 0.29 in - - ()
Sea Level Pressure  
Sea Level Pressure 30.04 in    
Wind  
Wind Speed 2 mph (West)    
Max Wind Speed 7 mph    
Max Gust Speed 23 mph    
Visibility 8 miles    
Events Rain    
Averages and records for this station are not official NWS values.
T = Trace of Precipitation, MM = Missing Value Source: NWS Daily Summary

Daily Weather History Graph

Daily Weather History Graph

Search for Another Location

Airport:

Trip Planner

Search our weather history database for the weather conditions in past years. The results will help you decide how hot, cold, wet, or windy it might be!

Date:

Astronomy

Jun. 09, 2012 Rise Set
Actual Time 5:04 AM PDT 8:41 PM PDT
Civil Twilight 4:27 AM PDT 9:19 PM PDT
Nautical Twilight 3:37 AM PDT 10:09 PM PDT
Astronomical Twilight 2:30 AM PDT 11:16 PM PDT
Moon No Moon Rise 11:09 AM PDT (6/9)
Length of Visible Light 16h 51m
Length of Day
15h 36m
Waning Gibbous, 67% of the Moon is Illuminated
Jun 9
Waning Gibbous
Jun 11
Last Quarter
Jun 19
New
Jun 26
First Quarter
Jul 3
Full

Hourly Weather History & Observations

Time (PDT) Temp. Windchill Dew Point Humidity Pressure Visibility Wind Dir Wind Speed Gust Speed Precip Events Conditions
12:56 AM 37.0 °F - 34.0 °F 89% 29.96 in 10.0 mi Calm Calm - N/A   Overcast
1:56 AM 37.0 °F - 34.0 °F 89% 29.95 in 10.0 mi Calm Calm - N/A   Mostly Cloudy
2:56 AM 36.0 °F - 33.1 °F 89% 29.96 in 10.0 mi Calm Calm - N/A   Overcast
3:47 AM 35.6 °F 31.7 °F 33.8 °F 93% 29.93 in 10.0 mi Variable 4.6 mph - N/A   Overcast
3:56 AM 36.0 °F 33.3 °F 33.1 °F 89% 29.96 in 10.0 mi Variable 3.5 mph - N/A   Overcast
4:56 AM 36.0 °F - 33.1 °F 89% 29.98 in 10.0 mi Calm Calm - N/A   Overcast
5:56 AM 36.0 °F - 33.1 °F 89% 29.99 in 9.0 mi Calm Calm - N/A   Overcast
6:06 AM 35.6 °F - 33.8 °F 93% 29.97 in 8.0 mi Calm Calm - N/A   Overcast
6:56 AM 36.0 °F - 33.1 °F 89% 30.02 in 10.0 mi Calm Calm - N/A   Overcast
7:56 AM 37.0 °F 34.5 °F 34.0 °F 89% 30.03 in 10.0 mi Variable 3.5 mph - N/A   Overcast
8:56 AM 39.0 °F 36.8 °F 35.1 °F 86% 30.03 in 10.0 mi West 3.5 mph - N/A   Overcast
9:22 AM 39.2 °F 35.9 °F 33.8 °F 81% 29.99 in 10.0 mi Variable 4.6 mph - N/A   Overcast
9:56 AM 41.0 °F 39.0 °F 35.1 °F 79% 30.03 in 10.0 mi Variable 3.5 mph - N/A   Overcast
10:56 AM 42.1 °F 40.2 °F 36.0 °F 79% 30.04 in 10.0 mi Variable 3.5 mph - N/A   Overcast
11:19 AM 41.0 °F 39.0 °F 35.6 °F 81% 30.01 in 10.0 mi Variable 3.5 mph - N/A   Overcast
11:56 AM 45.0 °F 42.6 °F 36.0 °F 71% 30.04 in 10.0 mi Variable 4.6 mph 20.7 mph 0.00 in Rain Light Rain
12:56 PM 45.0 °F 41.2 °F 35.1 °F 68% 30.04 in 10.0 mi Variable 6.9 mph - 0.00 in Rain Light Rain
1:56 PM 46.9 °F - 33.1 °F 59% 30.03 in 10.0 mi Variable 6.9 mph 16.1 mph 0.00 in   Overcast
2:56 PM 44.1 °F 42.5 °F 36.0 °F 73% 30.06 in 6.0 mi Variable 3.5 mph 23.0 mph 0.01 in Rain Light Rain
3:27 PM 42.8 °F 40.1 °F 37.4 °F 81% 30.03 in 1.8 mi Variable 4.6 mph - 0.03 in Rain Rain
3:36 PM 42.8 °F - 39.2 °F 87% 30.03 in 3.0 mi Calm Calm - 0.05 in Rain Light Rain
3:56 PM 43.0 °F - 39.9 °F 89% 30.06 in 5.0 mi Calm Calm - 0.06 in Rain Light Rain
4:21 PM 42.8 °F 39.3 °F 39.2 °F 87% 30.03 in 2.0 mi Variable 5.8 mph - 0.05 in Rain Rain
4:56 PM 42.1 °F 40.2 °F 39.0 °F 89% 30.08 in 2.0 mi Variable 3.5 mph - 0.10 in Rain Light Rain
5:08 PM 42.8 °F - 39.2 °F 87% 30.04 in 1.5 mi Calm Calm - 0.03 in Rain Rain
5:27 PM 42.8 °F 38.6 °F 39.2 °F 87% 30.04 in 2.5 mi Variable 6.9 mph - 0.07 in Rain Light Rain
5:39 PM 42.8 °F 38.6 °F 39.2 °F 87% 30.04 in 3.0 mi Variable 6.9 mph - 0.08 in Rain Rain
5:47 PM 42.8 °F 41.1 °F 39.2 °F 87% 30.04 in 2.0 mi Variable 3.5 mph - 0.10 in Rain Rain
5:56 PM 43.0 °F 40.3 °F 39.0 °F 86% 30.08 in 5.0 mi Variable 4.6 mph - 0.12 in Rain Light Rain
6:20 PM 42.8 °F 41.1 °F 39.2 °F 87% 30.05 in 10.0 mi Variable 3.5 mph - 0.00 in   Overcast
6:35 PM 42.8 °F 41.1 °F 39.2 °F 87% 30.05 in 10.0 mi Variable 3.5 mph - 0.00 in Rain Light Rain
6:56 PM 43.0 °F 39.5 °F 39.0 °F 86% 30.10 in 10.0 mi Variable 5.8 mph - 0.00 in Rain Light Rain
7:56 PM 43.0 °F 39.5 °F 37.9 °F 82% 30.11 in 10.0 mi Variable 5.8 mph - 0.00 in Rain Light Rain
8:56 PM 42.1 °F 40.2 °F 37.0 °F 82% 30.12 in 10.0 mi West 3.5 mph - 0.00 in   Overcast
9:56 PM 42.1 °F 38.4 °F 37.0 °F 82% 30.14 in 10.0 mi Variable 5.8 mph - N/A   Overcast
10:56 PM 42.1 °F 38.4 °F 36.0 °F 79% 30.15 in 10.0 mi Variable 5.8 mph - N/A   Overcast
11:56 PM 41.0 °F - 36.0 °F 82% 30.15 in 10.0 mi Calm Calm - N/A   Overcast